Showing default

EMISAT, 44078

Orbit data source: Space-Track

EMISAT, 44078 is a payload satellite owned by ISRO (IN) in SSO that was launched on Mon, 01 Apr 2019 UTC via a PSLV-QL launch vehicle from the Sirharikota (SRI). Payload-class satellites include a variety of spacecraft equipped with specific instruments for various scientific and technological missions. These include communications satellites like Starlink; space stations such as the ISS; scientific satellites like the Hubble; Earth observation satellites from companies like Planet Labs, Umbra, and HawkEye 360; GPS; miniature CubeSats for education and research; and military/defense satellites.

Loading next visibility...
Identifier
44078, 2019-018A
Orbit
SSO
Last TLE update
7 hours ago
Origin
Manufacturer
ISRO
Mission
Operational Defense Sigint
Bus & Motor
SSB-2, AOCS
Mass
436 kg wet, ~380 kg dry
Launch date (UTC)
2019-04-01 (6 years ago)
Launch vehicle
PSLV-QL
Launch site
Sirharikota (SRI)
Object type
Payload
Rocket body
Debris
Shape & HBR
Box + 2 Pan, 6 m
Radar Cross Section
4.485 m², Large (>1 m²)

Expand to show TLE details & history

TLE from 7 hours ago
0 EMISAT
1 44078U 19018A   25129.49596537  .00000303  00000-0  10161-3 0  9997
2 44078  98.2890 187.2891 0018397 359.4761   0.6408 14.43700265321804
Epoch: 2025-05-09T11:54Z
Definitive object data (Epoch: 2025-05-09T11:54:11.407Z)
Latitude
-0°
Longitude
141.19029°
Altitude
736.15 km
Speed
7.494 km/s
True Right ascension
12h 29m 09s
True Declination
0° 00' 00"
Sunlit
Object was in full shadow at TLE epoch
Visualization TLE readout
Latitude
81.34608°
Longitude
33.67519°
Altitude
760.65 km
Speed
7.48 km/s
Apparent Right ascension
14h 37m 01s
Apparent Declination
36° 20' 50"
Sunlit
Object is in daylight
Visualization observer readout
Local Sidereal Time
03:09:53
Azimuth
6.793° NNE
Elevation
-13.363°
Doppler factor
1
Orbital elements
Apogee altitude
756.507 km
Perigee altitude
730.304 km
Semi-major axis
7,121.543 km
Eccentricity
0.0018397
Inclination
98.289°
RAAN
187.2891°
Arg. of periapsis
359.4761°
True anomaly
0.64316°
Mean anomaly
0.6408°
Eccentric anomaly
0.64198°
Mean motion
3.61145 °/min
BSTAR
0.00010161
Orbital period
99.68 mins
Loading maneuver chart data...
Loading SW <> Apogee altitude chart data...

EMISAT Visibility forecast

Observer location: undefined°, undefined°

Span
Click to sort rows by Start time (UTC) header in descending order
Start Az.
Max El. time (UTC)
Max El. Az.
Max El.
End time (UTC)
End Az.
7 mins2025-05-10 03:00:59.477Z122.842° SE2025-05-10 03:03:59.477Z75.861° E27.19°2025-05-10 03:07:59.477Z11.389° NNE
7 mins2025-05-10 04:39:59.477Z216.426° SW2025-05-10 04:42:59.477Z266.707° W24.851°2025-05-10 04:46:59.477Z322.42° NNW
8 mins2025-05-10 16:45:59.477Z11.732° NNE2025-05-10 16:48:59.477Z359.769° N44.015°2025-05-10 16:53:59.477Z196.118° SSW
|